FW9340 Weather Reports


time (UTC)temp
C
wind
direction
speed
KPH
gust
KPH
rain 1hr
cm
rain 24hr
cm
rain mn
cm
humidity
%
barometer
mb
20260507124559 11 0 0.0 6.4 0.00 0.00 0.00 77 1013.1
20260507123046 11 0 0.0 4.8 0.00 0.00 0.00 79 1012.9
20260507121545 11 0 0.0 8.0 0.00 0.00 0.00 86 1012.9
20260507120040 11 0 0.0 6.4 0.00 0.00 0.00 90 1012.6
20260507114545 11 297 1.6 6.4 0.00 0.00 0.00 92 1012.4
20260507113040 11 0 0.0 1.6 0.00 0.00 0.00 93 1012.4
20260507111540 11 0 0.0 0.0 0.00 0.00 0.00 94 1012.4
20260507110039 11 0 0.0 0.0 0.00 0.00 0.00 94 1012.3
20260507104536 11 0 0.0 0.0 0.00 0.00 0.00 95 1012.3
20260507103043 11 0 0.0 0.0 0.00 0.00 0.00 94 1012.1
20260507101550 11 0 0.0 0.0 0.00 0.00 0.00 94 1012.1
20260507100050 11 0 0.0 0.0 0.00 0.00 0.00 93 1011.9
20260507094540 11 0 0.0 1.6 0.00 0.00 0.00 93 1012.0
20260507093040 11 0 0.0 1.6 0.00 0.00 0.00 93 1011.6
20260507091544 11 0 0.0 0.0 0.00 0.00 0.00 94 1011.9
20260507090047 11 0 0.0 0.0 0.00 0.00 0.00 93 1011.9
20260507084546 11 0 0.0 0.0 0.00 0.00 0.00 93 1011.6
20260507083054 11 0 0.0 0.0 0.00 0.00 0.00 92 1011.7
20260507081543 11 0 0.0 1.6 0.00 0.00 0.00 91 1011.3
20260507080043 11 0 0.0 1.6 0.00 0.00 0.00 91 1011.2
20260507074541 11 0 0.0 8.0 0.00 0.00 0.00 89 1011.1
20260507073052 11 254 4.8 12.9 0.00 0.00 0.00 90 1010.8
20260507071539 12 0 3.2 19.3 0.00 0.00 0.00 92 1010.7
20260507070042 12 300 1.6 9.7 0.00 0.00 0.00 94 1010.8
20260507064539 12 0 0.0 6.4 0.00 0.00 0.00 94 1010.9
20260507063047 12 0 0.0 9.7 0.00 0.00 0.00 94 1010.9
20260507061540 12 0 0.0 6.4 0.00 0.00 0.00 94 1010.4
20260507060040 12 311 1.6 6.4 0.00 0.00 0.00 93 1011.1
20260507054542 12 290 0.0 8.0 0.00 0.00 0.00 93 1011.0
20260507053045 12 291 3.2 9.7 0.00 0.00 0.00 93 1010.9
20260507051543 13 0 0.0 9.7 0.00 0.00 0.00 91 1010.8
20260507050040 14 286 4.8 12.9 0.00 0.00 0.00 88 1011.4
20260507044541 15 21 4.8 16.1 0.00 0.00 0.00 84 1010.8
20260507043042 15 311 3.2 19.3 0.00 0.00 0.00 81 1011.0
20260507041545 16 290 3.2 9.7 0.00 0.00 0.00 79 1010.9
20260507040043 16 0 1.6 9.7 0.00 0.00 0.00 79 1010.5
20260507034541 16 287 1.6 9.7 0.00 0.00 0.00 78 1010.5
20260507033039 16 221 0.0 6.4 0.00 0.00 0.00 79 1010.5
20260507031539 16 5 1.6 11.3 0.00 0.00 0.00 81 1010.3
20260507030047 17 0 0.0 14.5 0.00 0.00 0.00 84 1010.0
20260507024554 17 0 0.0 6.4 0.00 0.00 0.00 86 1010.0
20260507023042 17 318 4.8 17.7 0.00 0.00 0.00 85 1009.6
20260507021539 18 295 9.7 16.1 0.00 0.00 0.00 84 1009.6
20260507020055 18 280 4.8 14.5 0.00 0.00 0.00 83 1009.4
20260507014553 18 286 6.4 14.5 0.00 0.00 0.00 82 1009.4
20260507013045 18 0 3.2 9.7 0.00 0.00 0.00 84 1009.8
20260507011540 18 340 0.0 6.4 0.00 0.00 0.00 86 1009.7
20260507010039 19 0 0.0 0.0 0.00 0.00 0.00 85 1009.7
20260507004543 19 0 0.0 6.4 0.00 0.00 0.00 84 1009.5
20260507003039 19 0 0.0 1.6 0.00 0.00 0.00 84 1009.3
20260507001539 19 0 0.0 8.0 0.00 0.00 0.00 83 1009.1
20260507000039 19 0 0.0 1.6 0.00 0.00 0.00 84 1009.2
20260506234538 19 0 0.0 1.6 0.00 0.00 0.00 84 1009.0
20260506233040 19 0 0.0 1.6 0.00 0.00 0.00 84 1009.0
20260506231549 20 0 0.0 0.0 0.00 0.00 0.00 83 1008.7
20260506230052 20 0 0.0 4.8 0.00 0.00 0.00 83 1008.5
20260506224544 20 0 0.0 1.6 0.00 0.00 0.00 82 1008.7
20260506223050 20 0 0.0 4.8 0.00 0.00 0.00 82 1008.5
20260506221537 20 0 1.6 12.9 0.00 0.00 0.00 80 1008.5
20260506220044 20 0 0.0 14.5 0.00 0.00 0.00 80 1008.6
20260506214540 20 182 0.0 14.5 0.00 0.00 0.00 80 1008.4
20260506213059 20 243 4.8 17.7 0.00 0.00 0.00 79 1008.5
20260506211602 20 160 3.2 12.9 0.00 0.00 0.00 79 1008.4
20260506210043 20 0 3.2 9.7 0.00 0.00 0.00 80 1008.1
20260506204548 20 234 0.0 8.0 0.00 0.00 0.00 80 1008.0
20260506203046 20 0 1.6 14.5 0.00 0.00 0.00 81 1008.1
20260506201554 20 202 3.2 14.5 0.00 0.00 0.00 80 1008.0
20260506200045 20 216 0.0 11.3 0.00 0.00 0.00 80 1008.0
20260506194551 20 211 1.6 19.3 0.00 0.00 0.00 80 1008.1
20260506193040 20 191 0.0 19.3 0.00 0.00 0.00 80 1008.3
20260506191545 20 150 9.7 20.9 0.00 0.00 0.00 78 1008.3
20260506190038 20 113 4.8 12.9 0.00 0.00 0.00 81 1008.5
20260506184546 18 0 6.4 22.5 0.00 0.00 0.00 83 1008.5
20260506183057 18 148 8.0 24.1 0.00 0.00 0.00 83 1008.7
20260506181539 18 222 3.2 17.7 0.00 0.00 0.00 85 1008.7
20260506180050 17 0 4.8 17.7 0.00 0.00 0.00 87 1008.9
20260506174542 17 203 4.8 19.3 0.00 0.00 0.00 88 1009.0
20260506173050 17 0 4.8 20.9 0.00 0.00 0.00 89 1009.0
20260506171541 17 218 6.4 20.9 0.00 0.00 0.00 90 1009.2
20260506170100 17 148 11.3 24.1 0.00 0.00 0.00 90 1009.1
20260506164540 16 223 11.3 22.5 0.00 0.00 0.00 92 1009.2
20260506163048 16 239 3.2 19.3 0.00 0.00 0.00 93 1009.5
20260506161541 16 189 3.2 19.3 0.00 0.00 0.00 94 1009.4
20260506160043 16 251 8.0 24.1 0.00 0.00 0.00 94 1009.4
20260506154543 15 248 3.2 14.5 0.00 0.00 0.00 95 1009.6
20260506153040 15 214 3.2 17.7 0.00 0.00 0.00 94 1009.7
20260506151539 15 229 3.2 17.7 0.00 0.00 0.00 94 1009.7
20260506150039 15 214 1.6 16.1 0.00 0.00 0.00 94 1009.9
20260506144555 15 224 3.2 14.5 0.00 0.00 0.00 94 1010.4
20260506143040 15 0 3.2 14.5 0.00 0.00 0.00 94 1010.3
20260506141541 15 0 3.2 14.5 0.00 0.00 0.00 93 1010.2
20260506140043 15 0 1.6 8.0 0.00 0.00 0.00 92 1010.2
20260506134539 16 0 0.0 6.4 0.00 0.00 0.00 91 1010.6
20260506133043 16 224 1.6 11.3 0.00 0.00 0.00 90 1010.9
20260506131540 16 155 1.6 11.3 0.00 0.00 0.00 89 1010.7
20260506130039 16 0 0.0 11.3 0.00 0.00 0.00 87 1010.1